Location: Newark
(34.1333°N, 7.9667°W)
Time: 00:41:43
(UTC+00:00)

Transit 2A - Pass Details

Date: 21 June 2021
Orbit: 598 x 960 km, 66.7° (Epoch: 24 July)

Event Time Altitude Azimuth Distance (km) Brightness Sun altitude
Rises 01:50:45 0° 335° (NNW) 3,114 9.7 -29.6°
Reaches altitude 10° 01:53:00 10° 336° (NNW) 2,243 8.9 -29.4°
Enters shadow 01:57:34 70° 1° (N) 837 6.2 -29.1°
Maximum altitude 01:58:09 80° 64° (ENE) 808 - -29.0°
Drops below altitude 10° 02:03:52 10° 151° (SSE) 2,477 - -28.6°
Sets 02:06:28 0° 153° (SSE) 3,463 - -28.3°
